User: anonymous   Login
Location: Unspecified
(0.0000°N, 0.0000°E)
Time: 16:39:07
(UTC+00:00)
Language:

USA 237 - Orbit

View from above orbital plane
View from above orbital plane
View from above satellite
View from above satellite

Ground track
Ground track

The orbit data is extracted from the following two-line orbital elements,

1 38528U 12034A   17066.36205009 0.00000000  00000-0  00000-0 0    04
2 38528   0.9629 348.3011 0043737 356.1826   3.7844  1.00270000    05
Epoch (UTC): 07 March 2017 08:41:21
Eccentricity: 0.0043737
inclination: 0.9629°
perigee height: 35602 km
apogee height: 35971 km
right ascension of ascending node: 348.3011°
argument of perigee: 356.1826°
revolutions per day: 1.00270000
mean anomaly at epoch: 3.7844°
orbit number at epoch: 0

The dashed part of the orbit path shows where the satellite is in the earth's shadow,  

DLR